Regional Weather Roundup
Issued by NWS

Home | Current Version | Previous Version | Text Only | Print | Product List | Glossary Off
Versions: 1 2 3 4 5 6 7 8 9 10 11 12 13 14 15 16 17 18 19 20 21 22 23 24 25 26 27 28 29 30 31 32 33 34 35 36 37 38 39 40 41 42 43 44 45 46 47 48 49 50

000
ASUS43 KFSD 180210
RWRSD

WEATHER ROUNDUP FOR SOUTH DAKOTA
NATIONAL WEATHER SERVICE SIOUX FALLS SD
900 PM CDT THU APR 17 2014

NOTE: "FAIR" INDICATES FEW OR NO CLOUDS BELOW 12,000 FEET WITH NO
SIGNIFICANT WEATHER AND/OR OBSTRUCTIONS TO VISIBILITY.


SDZ001>005-009-010-012>017-180300-
NORTHWEST AND NORTH CENTRAL SOUTH DAKOTA

CITY           SKY/WX    TMP DP  RH WIND       PRES   REMARKS
BUFFALO          N/A     45  32  60 SE14      29.90R
FAITH            N/A     40  30  67 SE18      30.02F
MOBRIDGE       MOCLDY    38  22  52 SE13      30.12S
$$

SDZ012>016-024>037-041>051-057-063-072>074-180300-
SOUTHWEST AND SOUTH CENTRAL SOUTH DAKOTA

CITY           SKY/WX    TMP DP  RH WIND       PRES   REMARKS
RAPID CTY ARPT PTCLDY    47  35  63 SE14      29.96S
PIERRE         PTCLDY    39  24  55 E14       30.10F
CUSTER         MOCLDY    41  34  76 VRB5      29.98R
ELLSWORTH AFB  PTCLDY    47  36  65 SE16      29.96R
PHILIP         CLEAR     41  29  62 E12       30.03F
PINE RIDGE     PTCLDY    47  34  60 S16       29.99F
SPEARFISH      FAIR      45  36  70 E12       29.93S
WINNER         FAIR      40  25  55 SE17      30.11F
$$

SDZ004>011-016>023-039-040-180300-
NORTHEAST SOUTH DAKOTA

CITY           SKY/WX    TMP DP  RH WIND       PRES   REMARKS
ABERDEEN       PTCLDY    30  18  60 S9        30.23S WCI  22
WATERTOWN      PTCLDY    32  19  58 SE7       30.24S WCI  26
SISSETON         N/A     32  24  72 S10       30.26R WCI  24
$$

SDZ017-020-022-023-036>040-048>070-180300-
SOUTHEAST SOUTH DAKOTA

CITY           SKY/WX    TMP DP  RH WIND       PRES   REMARKS
SIOUX FALLS    MOCLDY    40  25  55 E9        30.26R
HURON          CLOUDY    41  26  55 SE8       30.22F
CHAMBERLAIN      N/A     40  26  57 SE14      30.16F
MITCHELL       CLOUDY    44  24  45 SE8       30.23S
YANKTON        PTCLDY    45  25  45 NE7       30.25R
$$

ABBREVIATIONS USED IN REMARKS
   TC - TEMPERATURE IN CELSIUS
  WCI - WIND CHILL INDEX
   HX - HEAT INDEX
  VSB - VISIBILITY




USA.gov is the U.S. government's official web portal to all federal, state and local government web resources and services.